CDAKE CYKF-CYXU

Flight info

Callsign CDAKE
Flight time 0h 29m
Altitude 5000
Route CYKF3 DERLO
Aircraft PC12/L-V/N

Departure

Time 2026-04-28 02:53
Airport Region of Waterloo International Airport (CYKF)

Arrival

Time 2026-04-28 03:23
Airport London International Airport (CYXU)
Time Latitude Longitude Altitude Speed Heading
2026-04-28 02:39 43.45656 -80.38728 1031 ft 0 kts 172°
2026-04-28 02:44 43.45657 -80.38728 1031 ft 1 kts 170°
2026-04-28 02:44 43.45668 -80.38723 1031 ft 2 kts 244°
2026-04-28 02:45 43.45668 -80.38724 1031 ft 0 kts 242°
2026-04-28 02:46 43.45664 -80.38749 1031 ft 10 kts 258°
2026-04-28 02:46 43.45674 -80.38866 1030 ft 15 kts 314°
2026-04-28 02:47 43.45770 -80.38940 1031 ft 16 kts 338°
2026-04-28 02:47 43.45869 -80.39015 1030 ft 18 kts 326°
2026-04-28 02:47 43.45976 -80.39100 1031 ft 18 kts 332°
2026-04-28 02:47 43.46070 -80.39189 1032 ft 12 kts 326°
2026-04-28 02:48 43.46142 -80.39214 1032 ft 0 kts 357°
2026-04-28 02:49 43.46149 -80.39214 1032 ft 5 kts 356°
2026-04-28 02:49 43.46179 -80.39216 1032 ft 0 kts 17°
2026-04-28 02:50 43.46203 -80.39193 1032 ft 13 kts 41°
2026-04-28 02:50 43.46216 -80.39110 1031 ft 5 kts 126°
2026-04-28 02:51 43.46216 -80.39109 1031 ft 0 kts 127°
2026-04-28 02:52 43.46159 -80.39008 1033 ft 32 kts 127°
2026-04-28 02:52 43.45944 -80.38616 1035 ft 68 kts 129°
2026-04-28 02:52 43.45593 -80.38038 1098 ft 82 kts 126°
2026-04-28 02:52 43.45236 -80.37395 1284 ft 91 kts 115°
2026-04-28 02:53 43.44915 -80.36552 1383 ft 117 kts 127°
2026-04-28 02:53 43.44370 -80.35659 1721 ft 125 kts 129°
2026-04-28 02:53 43.43982 -80.35045 1996 ft 131 kts 135°
2026-04-28 02:53 43.43363 -80.34108 2406 ft 128 kts 137°
2026-04-28 02:54 43.42820 -80.33247 2789 ft 109 kts 142°
2026-04-28 02:54 43.42204 -80.32929 3187 ft 89 kts 181°
2026-04-28 02:54 43.41657 -80.33624 3720 ft 98 kts 239°
2026-04-28 02:54 43.41630 -80.34423 3652 ft 150 kts 265°
2026-04-28 02:55 43.42057 -80.35811 4147 ft 172 kts 298°
2026-04-28 02:55 43.42785 -80.37208 4382 ft 186 kts 292°
2026-04-28 02:55 43.43448 -80.38823 4627 ft 201 kts 291°
2026-04-28 02:55 43.44056 -80.40557 4855 ft 205 kts 279°
2026-04-28 02:56 43.44212 -80.42477 5079 ft 201 kts 257°
2026-04-28 02:56 43.43828 -80.44282 5306 ft 195 kts 234°
2026-04-28 02:56 43.43263 -80.45989 5530 ft 200 kts 244°
2026-04-28 02:56 43.42791 -80.47804 5758 ft 202 kts 240°
2026-04-28 02:57 43.42094 -80.49456 5990 ft 199 kts 228°
2026-04-28 02:57 43.41228 -80.50939 6220 ft 200 kts 225°
2026-04-28 02:57 43.40335 -80.52412 6445 ft 202 kts 225°
2026-04-28 02:57 43.39448 -80.53920 6662 ft 204 kts 226°
2026-04-28 02:58 43.38538 -80.55482 6640 ft 212 kts 226°
2026-04-28 02:58 43.37600 -80.57092 6519 ft 218 kts 226°
2026-04-28 02:58 43.36682 -80.58777 6397 ft 223 kts 232°
2026-04-28 02:58 43.35927 -80.60675 6273 ft 229 kts 239°
2026-04-28 02:59 43.35368 -80.62762 6149 ft 235 kts 248°
2026-04-28 02:59 43.35027 -80.64955 6025 ft 240 kts 255°
2026-04-28 02:59 43.34902 -80.67262 5753 ft 242 kts 262°
2026-04-28 02:59 43.34616 -80.69484 5427 ft 232 kts 244°
2026-04-28 03:00 43.33854 -80.71377 5116 ft 223 kts 226°
2026-04-28 03:00 43.32849 -80.72939 5016 ft 212 kts 221°
2026-04-28 03:00 43.31856 -80.74380 5010 ft 203 kts 220°
2026-04-28 03:00 43.30898 -80.75771 5012 ft 197 kts 220°
2026-04-28 03:01 43.29969 -80.77118 5012 ft 192 kts 220°
2026-04-28 03:01 43.29069 -80.78428 5011 ft 189 kts 220°
2026-04-28 03:01 43.28161 -80.79758 5009 ft 188 kts 220°
2026-04-28 03:01 43.27285 -80.81041 5007 ft 186 kts 220°
2026-04-28 03:02 43.26402 -80.82329 4996 ft 184 kts 220°
2026-04-28 03:02 43.25519 -80.83613 4994 ft 187 kts 220°
2026-04-28 03:02 43.24644 -80.84881 4992 ft 193 kts 220°
2026-04-28 03:02 43.23723 -80.86217 4988 ft 192 kts 221°
2026-04-28 03:03 43.22800 -80.87546 4990 ft 192 kts 221°
2026-04-28 03:03 43.21873 -80.88875 4980 ft 193 kts 220°
2026-04-28 03:03 43.20945 -80.90205 4981 ft 193 kts 221°
2026-04-28 03:03 43.20096 -80.91620 4973 ft 196 kts 233°
2026-04-28 03:04 43.19494 -80.93300 4972 ft 194 kts 230°
2026-04-28 03:04 43.18597 -80.94565 4975 ft 184 kts 210°
2026-04-28 03:04 43.17437 -80.95193 4971 ft 177 kts 188°
2026-04-28 03:04 43.16221 -80.95082 4973 ft 177 kts 167°
2026-04-28 03:05 43.15099 -80.94261 4752 ft 191 kts 146°
2026-04-28 03:05 43.14233 -80.92795 4509 ft 207 kts 126°
2026-04-28 03:05 43.13780 -80.90861 4256 ft 221 kts 106°
2026-04-28 03:05 43.13842 -80.88707 4018 ft 235 kts 85°
2026-04-28 03:06 43.14564 -80.86654 3774 ft 248 kts 58°
2026-04-28 03:06 43.15991 -80.85251 3526 ft 262 kts 25°
2026-04-28 03:06 43.17800 -80.84957 3286 ft 266 kts 352°
2026-04-28 03:06 43.19496 -80.85881 3043 ft 261 kts 319°
2026-04-28 03:07 43.20583 -80.87748 2884 ft 242 kts 284°
2026-04-28 03:07 43.20892 -80.89865 2881 ft 216 kts 264°
2026-04-28 03:07 43.21061 -80.91866 2868 ft 212 kts 274°
2026-04-28 03:07 43.21584 -80.93747 2867 ft 208 kts 282°
2026-04-28 03:08 43.21969 -80.95558 2869 ft 195 kts 270°
2026-04-28 03:08 43.22252 -80.97353 2863 ft 192 kts 270°
2026-04-28 03:08 43.22531 -80.99141 2861 ft 192 kts 270°
2026-04-28 03:08 43.22807 -81.00944 2861 ft 195 kts 270°
2026-04-28 03:09 43.23082 -81.02759 2872 ft 193 kts 269°
2026-04-28 03:09 43.23260 -81.04558 2874 ft 190 kts 263°
2026-04-28 03:09 43.23387 -81.06375 2873 ft 192 kts 263°
2026-04-28 03:09 43.23514 -81.08212 2877 ft 194 kts 263°
2026-04-28 03:10 43.23639 -81.10063 2871 ft 195 kts 263°
2026-04-28 03:10 43.23765 -81.11907 2869 ft 193 kts 263°
2026-04-28 03:10 43.23873 -81.13732 2866 ft 187 kts 256°
2026-04-28 03:10 43.23718 -81.15436 2875 ft 178 kts 246°
2026-04-28 03:11 43.23493 -81.17101 2865 ft 176 kts 246°
2026-04-28 03:11 43.23270 -81.18749 2867 ft 175 kts 246°
2026-04-28 03:11 43.23043 -81.20402 2867 ft 178 kts 246°
2026-04-28 03:11 43.22806 -81.22076 2865 ft 181 kts 246°
2026-04-28 03:12 43.22562 -81.23775 2869 ft 183 kts 246°
2026-04-28 03:12 43.22311 -81.25497 2859 ft 182 kts 244°
2026-04-28 03:12 43.21794 -81.26883 2855 ft 148 kts 220°
2026-04-28 03:12 43.21214 -81.27951 2849 ft 132 kts 219°
2026-04-28 03:13 43.20695 -81.28920 2847 ft 121 kts 219°
2026-04-28 03:13 43.20172 -81.29694 2847 ft 107 kts 217°
2026-04-28 03:13 43.19797 -81.30581 2893 ft 107 kts 224°
2026-04-28 03:13 43.19456 -81.31462 2965 ft 105 kts 224°
2026-04-28 03:14 43.19088 -81.32360 2956 ft 110 kts 224°
2026-04-28 03:14 43.18558 -81.32832 2971 ft 89 kts 171°
2026-04-28 03:14 43.18017 -81.32379 3013 ft 94 kts 151°
2026-04-28 03:14 43.17485 -81.31839 3068 ft 96 kts 152°
2026-04-28 03:15 43.16956 -81.31274 3145 ft 91 kts 151°
2026-04-28 03:15 43.16530 -81.30787 3194 ft 72 kts 152°
2026-04-28 03:15 43.16165 -81.30365 3177 ft 67 kts 153°
2026-04-28 03:15 43.15815 -81.29956 3155 ft 66 kts 152°
2026-04-28 03:16 43.15469 -81.29549 3126 ft 65 kts 152°
2026-04-28 03:16 43.15126 -81.29147 3094 ft 65 kts 152°
2026-04-28 03:16 43.14784 -81.28743 3063 ft 65 kts 152°
2026-04-28 03:16 43.14446 -81.28332 3031 ft 65 kts 152°
2026-04-28 03:17 43.14109 -81.27925 3002 ft 65 kts 152°
2026-04-28 03:17 43.13435 -81.27110 2946 ft 64 kts 152°
2026-04-28 03:17 43.13099 -81.26706 2931 ft 65 kts 152°
2026-04-28 03:18 43.12752 -81.26287 2937 ft 72 kts 151°
2026-04-28 03:18 43.12351 -81.25805 3006 ft 79 kts 150°
2026-04-28 03:18 43.11917 -81.25284 2940 ft 89 kts 149°
2026-04-28 03:18 43.11429 -81.24699 2820 ft 95 kts 148°
2026-04-28 03:19 43.10925 -81.24092 2693 ft 98 kts 148°
2026-04-28 03:19 43.10420 -81.23480 2554 ft 95 kts 148°
2026-04-28 03:19 43.09934 -81.22892 2436 ft 92 kts 148°
2026-04-28 03:19 43.09464 -81.22324 2320 ft 90 kts 147°
2026-04-28 03:20 43.09004 -81.21768 2191 ft 86 kts 147°
2026-04-28 03:20 43.08557 -81.21228 2085 ft 85 kts 146°
2026-04-28 03:20 43.08112 -81.20690 1976 ft 87 kts 146°
2026-04-28 03:20 43.07651 -81.20137 1850 ft 89 kts 143°
2026-04-28 03:21 43.07196 -81.19589 1728 ft 86 kts 140°
2026-04-28 03:21 43.06739 -81.19037 1614 ft 90 kts 140°
2026-04-28 03:21 43.06253 -81.18452 1483 ft 94 kts 137°
2026-04-28 03:21 43.05768 -81.17866 1356 ft 92 kts 137°
2026-04-28 03:22 43.05278 -81.17275 1235 ft 96 kts 136°
2026-04-28 03:22 43.04784 -81.16681 1098 ft 89 kts 136°
2026-04-28 03:22 43.04351 -81.16157 983 ft 79 kts 134°
2026-04-28 03:22 43.03965 -81.15688 915 ft 65 kts 136°
2026-04-28 03:23 43.03671 -81.15331 905 ft 45 kts 139°
2026-04-28 03:23 43.03469 -81.15090 906 ft 34 kts 139°
2026-04-28 03:23 43.03357 -81.15057 905 ft 17 kts 232°
2026-04-28 03:23 43.03299 -81.15143 905 ft 1 kts 225°
2026-04-28 03:24 43.03253 -81.15151 905 ft 15 kts 140°
2026-04-28 03:24 43.03150 -81.15025 905 ft 23 kts 136°
2026-04-28 03:24 43.03004 -81.14852 905 ft 30 kts 134°
2026-04-28 03:24 43.02838 -81.14652 905 ft 32 kts 139°
2026-04-28 03:25 43.02678 -81.14460 905 ft 31 kts 143°
2026-04-28 03:25 43.02520 -81.14266 905 ft 30 kts 138°
2026-04-28 03:25 43.02376 -81.14093 905 ft 25 kts 145°
2026-04-28 03:25 43.02248 -81.13944 905 ft 24 kts 148°
2026-04-28 03:26 43.02130 -81.14000 905 ft 19 kts 244°
2026-04-28 03:26 43.02073 -81.14180 905 ft 24 kts 245°
2026-04-28 03:26 43.02032 -81.14291 905 ft 0 kts 200°
2026-04-28 03:26 43.02045 -81.14276 905 ft 4 kts 234°
2026-04-28 03:27 43.02010 -81.14384 905 ft 18 kts 245°
2026-04-28 03:27 43.01978 -81.14472 905 ft 0 kts 250°